| time (UTC) | temp F | wind direction | speed MPH | gust MPH | rain 1hr in | rain 24hr in | rain mn in | humidity % | barometer mb |
| 20260831144111 | 85 | 230 | 2.0 | 3.0 | 0.00 | 0.00 | 0.00 | 70 | 1016.1 |
| 20260831143112 | 85 | 268 | 1.0 | 3.0 | 0.00 | 0.00 | 0.00 | 70 | 1016.0 |
| 20260831142111 | 85 | 196 | 1.0 | 2.0 | 0.00 | 0.00 | 0.00 | 69 | 1016.0 |
| 20260831141111 | 85 | 196 | 2.0 | 3.0 | 0.00 | 0.00 | 0.00 | 69 | 1015.9 |
| 20260831140112 | 84 | 67 | 0.0 | 4.0 | 0.00 | 0.00 | 0.00 | 74 | 1015.8 |
| 20260831135111 | 82 | 111 | 0.0 | 3.0 | 0.00 | 0.00 | 0.00 | 77 | 1015.7 |
| 20260831134111 | 80 | 111 | 2.0 | 2.0 | 0.00 | 0.00 | 0.00 | 79 | 1015.6 |
| 20260831133111 | 78 | 111 | 0.0 | 1.0 | 0.00 | 0.00 | 0.00 | 81 | 1015.5 |
| 20260831132112 | 77 | 111 | 0.0 | 0.0 | 0.00 | 0.00 | 0.00 | 84 | 1015.4 |
| 20260831131112 | 77 | 111 | 0.0 | 1.0 | 0.00 | 0.00 | 0.00 | 85 | 1015.3 |
| 20260831130111 | 75 | 111 | 0.0 | 1.0 | 0.00 | 0.00 | 0.00 | 86 | 1015.1 |
| 20260831125111 | 74 | 111 | 0.0 | 0.0 | 0.00 | 0.00 | 0.00 | 88 | 1015.1 |
| 20260831124111 | 72 | 111 | 0.0 | 0.0 | 0.00 | 0.00 | 0.00 | 89 | 1014.8 |
| 20260831122112 | 71 | 111 | 0.0 | 0.0 | 0.00 | 0.00 | 0.00 | 88 | 1014.5 |
| 20260831121112 | 71 | 111 | 0.0 | 0.0 | 0.00 | 0.00 | 0.00 | 88 | 1014.3 |
| 20260831120112 | 71 | 111 | 0.0 | 0.0 | 0.00 | 0.00 | 0.00 | 88 | 1014.2 |
| 20260831115112 | 71 | 111 | 0.0 | 0.0 | 0.00 | 0.00 | 0.00 | 88 | 1014.2 |
| 20260831114111 | 71 | 111 | 0.0 | 0.0 | 0.00 | 0.00 | 0.00 | 88 | 1014.1 |
| 20260831113111 | 72 | 111 | 0.0 | 0.0 | 0.00 | 0.00 | 0.00 | 87 | 1014.0 |
| 20260831112111 | 72 | 111 | 0.0 | 0.0 | 0.00 | 0.00 | 0.00 | 87 | 1014.0 |
| 20260831110112 | 73 | 111 | 0.0 | 0.0 | 0.00 | 0.00 | 0.00 | 86 | 1013.9 |
| 20260831105111 | 73 | 111 | 0.0 | 0.0 | 0.00 | 0.00 | 0.00 | 86 | 1013.8 |
| 20260831104111 | 73 | 111 | 0.0 | 0.0 | 0.00 | 0.00 | 0.00 | 86 | 1013.7 |
| 20260831103111 | 73 | 111 | 0.0 | 0.0 | 0.00 | 0.00 | 0.00 | 85 | 1013.6 |
| 20260831101111 | 73 | 111 | 0.0 | 0.0 | 0.00 | 0.00 | 0.00 | 85 | 1013.6 |
| 20260831094112 | 73 | 111 | 0.0 | 0.0 | 0.00 | 0.00 | 0.00 | 84 | 1013.6 |
| 20260831093111 | 74 | 111 | 0.0 | 0.0 | 0.00 | 0.00 | 0.00 | 83 | 1013.5 |
| 20260831092111 | 74 | 111 | 0.0 | 0.0 | 0.00 | 0.00 | 0.00 | 83 | 1013.5 |
| 20260831091112 | 74 | 111 | 0.0 | 0.0 | 0.00 | 0.00 | 0.00 | 83 | 1013.5 |
| 20260831090111 | 74 | 111 | 0.0 | 1.0 | 0.00 | 0.00 | 0.00 | 82 | 1013.4 |
| 20260831085111 | 75 | 111 | 0.0 | 1.0 | 0.00 | 0.00 | 0.00 | 82 | 1013.4 |
| 20260831084112 | 75 | 111 | 0.0 | 0.0 | 0.00 | 0.00 | 0.00 | 82 | 1013.4 |
| 20260831083112 | 75 | 111 | 0.0 | 0.0 | 0.00 | 0.00 | 0.00 | 82 | 1013.4 |
| 20260831081112 | 76 | 111 | 0.0 | 1.0 | 0.00 | 0.00 | 0.00 | 80 | 1013.4 |
| 20260831080112 | 76 | 111 | 0.0 | 0.0 | 0.00 | 0.00 | 0.00 | 79 | 1013.4 |
| 20260831075112 | 76 | 111 | 0.0 | 1.0 | 0.00 | 0.00 | 0.00 | 79 | 1013.4 |
| 20260831074112 | 76 | 111 | 0.0 | 0.0 | 0.00 | 0.00 | 0.00 | 79 | 1013.3 |
| 20260831073111 | 77 | 111 | 0.0 | 0.0 | 0.00 | 0.00 | 0.00 | 78 | 1013.4 |
| 20260831072112 | 77 | 111 | 0.0 | 1.0 | 0.00 | 0.00 | 0.00 | 77 | 1013.4 |
| 20260831071112 | 78 | 111 | 0.0 | 0.0 | 0.00 | 0.00 | 0.00 | 77 | 1013.4 |
| 20260831070112 | 78 | 111 | 0.0 | 1.0 | 0.00 | 0.00 | 0.00 | 75 | 1013.5 |
| 20260831065112 | 79 | 111 | 0.0 | 1.0 | 0.00 | 0.00 | 0.00 | 73 | 1013.5 |
| 20260831064111 | 80 | 111 | 0.0 | 2.0 | 0.00 | 0.00 | 0.00 | 72 | 1013.7 |
| 20260831062112 | 81 | 111 | 0.0 | 2.0 | 0.00 | 0.00 | 0.00 | 70 | 1013.7 |
| 20260831061111 | 81 | 111 | 1.0 | 2.0 | 0.00 | 0.00 | 0.00 | 69 | 1013.6 |
| 20260831060112 | 82 | 111 | 1.0 | 2.0 | 0.00 | 0.00 | 0.00 | 67 | 1013.6 |
| 20260831055112 | 82 | 109 | 1.0 | 3.0 | 0.00 | 0.00 | 0.00 | 66 | 1013.5 |
| 20260831054112 | 82 | 17 | 0.0 | 3.0 | 0.00 | 0.00 | 0.00 | 66 | 1013.5 |
| 20260831053112 | 82 | 242 | 1.0 | 3.0 | 0.00 | 0.00 | 0.00 | 67 | 1013.4 |
| 20260831052112 | 81 | 252 | 2.0 | 2.0 | 0.00 | 0.00 | 0.00 | 66 | 1013.1 |
| 20260831051112 | 81 | 317 | 1.0 | 3.0 | 0.00 | 0.00 | 0.00 | 66 | 1013.1 |
| 20260831050112 | 81 | 355 | 2.0 | 2.0 | 0.00 | 0.00 | 0.00 | 66 | 1013.1 |
| 20260831045112 | 81 | 335 | 0.0 | 2.0 | 0.00 | 0.00 | 0.00 | 65 | 1013.1 |
| 20260831044112 | 81 | 335 | 0.0 | 3.0 | 0.00 | 0.00 | 0.00 | 63 | 1013.1 |
| 20260831043112 | 82 | 40 | 2.0 | 3.0 | 0.00 | 0.00 | 0.00 | 62 | 1013.0 |
| 20260831042112 | 81 | 43 | 1.0 | 3.0 | 0.00 | 0.00 | 0.00 | 62 | 1013.0 |
| 20260831041112 | 81 | 44 | 2.0 | 3.0 | 0.00 | 0.00 | 0.00 | 63 | 1012.9 |
| 20260831040112 | 80 | 56 | 2.0 | 4.0 | 0.00 | 0.00 | 0.00 | 64 | 1012.8 |
| 20260831035112 | 78 | 82 | 1.0 | 2.0 | 0.00 | 0.00 | 0.00 | 68 | 1012.6 |
| 20260831034112 | 78 | 70 | 0.0 | 2.0 | 0.00 | 0.00 | 0.00 | 67 | 1012.5 |
| 20260831033112 | 79 | 70 | 1.0 | 1.0 | 0.00 | 0.00 | 0.00 | 67 | 1012.4 |
| 20260831032112 | 79 | 70 | 0.0 | 1.0 | 0.00 | 0.00 | 0.00 | 66 | 1012.3 |
| 20260831031112 | 79 | 70 | 0.0 | 1.0 | 0.00 | 0.00 | 0.00 | 66 | 1012.2 |
| 20260831030112 | 79 | 70 | 0.0 | 1.0 | 0.00 | 0.00 | 0.00 | 65 | 1012.2 |
| 20260831025112 | 80 | 70 | 0.0 | 1.0 | 0.00 | 0.00 | 0.00 | 65 | 1012.1 |
| 20260831024113 | 80 | 70 | 0.0 | 2.0 | 0.00 | 0.00 | 0.00 | 64 | 1012.0 |
| 20260831023112 | 81 | 70 | 0.0 | 0.0 | 0.00 | 0.00 | 0.00 | 63 | 1011.9 |
| 20260831022112 | 81 | 70 | 0.0 | 1.0 | 0.00 | 0.00 | 0.00 | 61 | 1011.9 |
| 20260831020112 | 83 | 70 | 0.0 | 0.0 | 0.00 | 0.00 | 0.00 | 60 | 1011.6 |
| 20260831015112 | 84 | 70 | 0.0 | 1.0 | 0.00 | 0.00 | 0.00 | 58 | 1011.4 |
| 20260831011112 | 89 | 70 | 0.0 | 1.0 | 0.00 | 0.00 | 0.00 | 48 | 1011.1 |
| 20260831010112 | 91 | 70 | 1.0 | 1.0 | 0.00 | 0.00 | 0.00 | 47 | 1011.1 |
| 20260831005112 | 92 | 70 | 0.0 | 2.0 | 0.00 | 0.00 | 0.00 | 42 | 1011.0 |
| 20260831004112 | 94 | 70 | 0.0 | 4.0 | 0.00 | 0.00 | 0.00 | 40 | 1011.1 |
| 20260831002112 | 96 | 61 | 2.0 | 7.0 | 0.00 | 0.00 | 0.00 | 38 | 1011.1 |
| 20260831001112 | 96 | 87 | 2.0 | 7.0 | 0.00 | 0.00 | 0.00 | 39 | 1011.1 |
| 20260831000120 | 97 | 26 | 3.0 | 10.0 | 0.00 | 0.00 | 0.00 | 38 | 1011.1 |
| 20260830235112 | 97 | 102 | 1.0 | 9.0 | 0.00 | 0.00 | 0.00 | 38 | 1011.0 |
| 20260830234112 | 98 | 88 | 4.0 | 11.0 | 0.00 | 0.00 | 0.00 | 37 | 1010.9 |
| 20260830231112 | 98 | 36 | 7.0 | 9.0 | 0.00 | 0.00 | 0.00 | 37 | 1010.8 |
| 20260830225112 | 99 | 80 | 2.0 | 5.0 | 0.00 | 0.00 | 0.00 | 37 | 1011.0 |
| 20260830223112 | 100 | 219 | 1.0 | 5.0 | 0.00 | 0.00 | 0.00 | 33 | 1011.0 |
| 20260830222112 | 100 | 196 | 1.0 | 5.0 | 0.00 | 0.00 | 0.00 | 33 | 1011.0 |
| 20260830221112 | 101 | 241 | 0.0 | 8.0 | 0.00 | 0.00 | 0.00 | 32 | 1011.1 |
| 20260830215112 | 102 | 213 | 3.0 | 7.0 | 0.00 | 0.00 | 0.00 | 30 | 1011.1 |
| 20260830214112 | 102 | 261 | 1.0 | 8.0 | 0.00 | 0.00 | 0.00 | 31 | 1011.2 |
| 20260830213112 | 102 | 178 | 2.0 | 7.0 | 0.00 | 0.00 | 0.00 | 34 | 1011.2 |
| 20260830212112 | 102 | 215 | 1.0 | 5.0 | 0.00 | 0.00 | 0.00 | 32 | 1011.4 |
| 20260830211112 | 101 | 253 | 2.0 | 7.0 | 0.00 | 0.00 | 0.00 | 35 | 1011.5 |
| 20260830205112 | 101 | 89 | 5.0 | 7.0 | 0.00 | 0.00 | 0.00 | 35 | 1011.8 |
| 20260830203112 | 101 | 204 | 3.0 | 8.0 | 0.00 | 0.00 | 0.00 | 37 | 1012.1 |
| 20260830201112 | 101 | 212 | 1.0 | 8.0 | 0.00 | 0.00 | 0.00 | 34 | 1012.5 |
| 20260830200112 | 101 | 180 | 2.0 | 6.0 | 0.00 | 0.00 | 0.00 | 34 | 1012.5 |
| 20260830195112 | 101 | 233 | 4.0 | 7.0 | 0.00 | 0.00 | 0.00 | 36 | 1012.6 |
| 20260830194112 | 100 | 286 | 4.0 | 8.0 | 0.00 | 0.00 | 0.00 | 38 | 1012.8 |
| 20260830193112 | 99 | 298 | 2.0 | 6.0 | 0.00 | 0.00 | 0.00 | 41 | 1012.8 |
| 20260830192112 | 99 | 56 | 1.0 | 7.0 | 0.00 | 0.00 | 0.00 | 42 | 1013.0 |
| 20260830191112 | 98 | 304 | 3.0 | 8.0 | 0.00 | 0.00 | 0.00 | 43 | 1013.1 |
| 20260830190112 | 98 | 223 | 6.0 | 9.0 | 0.00 | 0.00 | 0.00 | 44 | 1013.2 |
| 20260830185112 | 98 | 219 | 6.0 | 7.0 | 0.00 | 0.00 | 0.00 | 44 | 1013.3 |
| 20260830184112 | 98 | 196 | 0.0 | 9.0 | 0.00 | 0.00 | 0.00 | 46 | 1013.4 |
| 20260830183112 | 97 | 49 | 1.0 | 7.0 | 0.00 | 0.00 | 0.00 | 47 | 1013.5 |
| 20260830182112 | 96 | 67 | 1.0 | 5.0 | 0.00 | 0.00 | 0.00 | 49 | 1013.5 |
| 20260830180112 | 96 | 228 | 0.0 | 6.0 | 0.00 | 0.00 | 0.00 | 49 | 1013.8 |
| 20260830174112 | 95 | 222 | 1.0 | 5.0 | 0.00 | 0.00 | 0.00 | 55 | 1014.2 |
| 20260830173112 | 95 | 274 | 3.0 | 7.0 | 0.00 | 0.00 | 0.00 | 55 | 1014.4 |
| 20260830172112 | 95 | 214 | 7.0 | 7.0 | 0.00 | 0.00 | 0.00 | 52 | 1014.5 |
| 20260830170112 | 94 | 215 | 3.0 | 5.0 | 0.00 | 0.00 | 0.00 | 53 | 1014.7 |
| 20260830164112 | 92 | 220 | 3.0 | 7.0 | 0.00 | 0.00 | 0.00 | 54 | 1014.9 |
| 20260830163112 | 92 | 300 | 1.0 | 5.0 | 0.00 | 0.00 | 0.00 | 58 | 1014.9 |
| 20260830162112 | 91 | 240 | 2.0 | 4.0 | 0.00 | 0.00 | 0.00 | 60 | 1015.0 |
| 20260830161112 | 91 | 295 | 1.0 | 7.0 | 0.00 | 0.00 | 0.00 | 57 | 1015.1 |
| 20260830160113 | 90 | 5 | 2.0 | 4.0 | 0.00 | 0.00 | 0.00 | 58 | 1015.0 |
| 20260830155112 | 90 | 30 | 0.0 | 3.0 | 0.00 | 0.00 | 0.00 | 60 | 1015.1 |
| 20260830154112 | 89 | 222 | 1.0 | 4.0 | 0.00 | 0.00 | 0.00 | 61 | 1015.2 |
| 20260830153112 | 88 | 319 | 3.0 | 3.0 | 0.00 | 0.00 | 0.00 | 65 | 1015.4 |
| 20260830152112 | 87 | 273 | 2.0 | 3.0 | 0.00 | 0.00 | 0.00 | 64 | 1015.4 |
| 20260830151113 | 86 | 213 | 3.0 | 3.0 | 0.00 | 0.00 | 0.00 | 68 | 1015.4 |
| 20260830150112 | 85 | 213 | 3.0 | 4.0 | 0.00 | 0.00 | 0.00 | 68 | 1015.4 |
| 20260830145112 | 85 | 248 | 2.0 | 4.0 | 0.00 | 0.00 | 0.00 | 69 | 1015.5 |